Regional Weather Roundup
Issued by NWS Green Bay, WI

Home | Current Version | Previous Version | Graphics & Text | Print | Product List | Glossary Off
Versions: 1 2 3 4 5 6 7 8 9 10 11 12 13 14 15 16 17 18 19 20 21 22 23 24 25 26 27 28 29 30 31 32 33 34 35 36 37 38 39 40 41 42 43 44 45 46 47 48 49 50

000
ASUS43 KGRB 202110
RWRGRB

NORTH-CENTRAL AND NORTHEAST WISCONSIN REGIONAL WEATHER ROUNDUP
NATIONAL WEATHER SERVICE GREEN BAY WI
400 PM CDT SAT SEP 20 2014

WIZ005-009-010>012-018-019-202200-
NORTH CENTRAL WISCONSIN

CITY           SKY/WX    TMP DP  RH WIND       PRES   REMARKS
IRONWOOD       MOSUNNY   64  54  68 NW12      29.68F
MANITOWISH WTR MOSUNNY   66  55  66 NW7       29.70F
ARBOR VITAE    SUNNY     72  57  59 NW6       29.70F
EAGLE RIVER    PTSUNNY   70  53  53 N10       29.69F
LAND O LAKES   MOSUNNY   67  54  63 N13       29.71S
RHINELANDER    PTSUNNY   71  54  54 NW7       29.70F
PHILLIPS       PTSUNNY   71  54  56 W5        29.70S
ANTIGO         PTSUNNY   73  55  52 W10       29.70F
TOMAHAWK       MOSUNNY   72  53  52 W12       29.71F
MERRILL        MOSUNNY   73  56  55 NW10      29.70F
$$

WIZ013-073-202200-
NORTHEAST WISCONSIN

CITY           SKY/WX    TMP DP  RH WIND       PRES   REMARKS
IRON MOUNTAIN  MOSUNNY   73  53  49 NW14      29.66S
MARINETTE      CLOUDY    73  63  68 W6        29.63S
OCONTO         PTSUNNY   75  64  69 SW10G21   29.64F
$$

WIZ017-030-035>037-045-202200-
CENTRAL WISCONSIN

CITY           SKY/WX    TMP DP  RH WIND       PRES   REMARKS
MEDFORD        MOSUNNY   71  55  56 W12G20    29.72S
WAUSAU         MOSUNNY   75  55  49 W15       29.69S
MOSINEE        PTSUNNY   73  59  60 W13       29.72S
MARSHFIELD     MOSUNNY   74  56  53 W14G20    29.73F
WISC RAPIDS    MOSUNNY   74  57  55 W12       29.74S
STEVENS POINT  MOSUNNY   73  57  56 W12       29.71F
WAUPACA        MOSUNNY   77  62  59 W13       29.71S
SHAWANO        PTSUNNY   77  60  56 W7        29.68R
CLINTONVILLE   MOSUNNY   73  57  56 W8        29.69R
$$

WIZ038-039-048-051-202200-
FOX VALLEY

CITY           SKY/WX    TMP DP  RH WIND       PRES   REMARKS
NWS GREEN BAY  PTSUNNY   75  63  66 W13       29.68F
APPLETON       PTSUNNY   73  63  68 W14       29.71F
OSHKOSH        PTSUNNY   73  64  73 SW7       29.72S
FOND DU LAC    PTSUNNY   72  63  73 SW14      29.74R
$$

WIZ022-050-052-202200-
EAST CENTRAL WISCONSIN

CITY           SKY/WX    TMP DP  RH WIND       PRES   REMARKS
STURGEON BAY   CLOUDY    72  63  73 SW21      29.66F
MANITOWOC      CLOUDY    71  65  81 W10       29.71F
SHEBOYGAN      LGT RAIN  72  65  78 W15       29.73F
$$

LMZ563-521-522-541>543-202200-
LAKESHORE

STATION/POSITION TIME  TEMP    WIND        PRES    VSBY  WAVE
                       AIR SEA DIR/SP/G                  HT/PER
                 (UTC) (F)     (DEG/KT/KT) (MB)    (MI)  (FT/S)
SHEBOYGAN LKSHOR 2100   71 55  250/ 14/ 16 1006.4F
KEWAUNEE LKSHORE 2100   72     240/  8/ 13 1004.1F
NORTHPORT PIER   2100   72     220/  6/ 12 1003.4S
N MID LAKE BUOY  2100   60 58  220/ 17/ 19 1003.0R         5/ 7
S GREEN BAY BUOY 2100   65     VRB 12/ 16  1005.3F
CHAMBERS ISLAND  2100   69     190/  9/ 18 1003.7S
MENOMINEE LKSHOR 2100   71     190/ 10/ 16 1004.0S
$$



USA.gov is the U.S. government's official web portal to all federal, state and local government web resources and services.